GLOBALSTAR M090 (38044 NORAD) Tracking and Keplerian Element Data

This shows tracking and keplerian element data for the satellite.

Feedback or suggestion? Click here.




ElementValue
Catalog38044
NameGLOBALSTAR M090
Epoch Orbit60672
Epoch Day34.44098684
Epoch Year2025
RAAN46.6178
Inclination51.9894
Eccentricity1.46E-05
Argument of Perigee122.3056
Mean Anonmoly25.2133
Mean Motion12.62266486
Decay Rate-9.2E-07
L11 38044U 11080E 25034.44098684 -.00000092 00000+0 67786-4 0 9995
L22 38044 51.9894 46.6178 0000146 122.3056 25.2133 12.62266486606729



Live tracking and technical data element details for GLOBALSTAR M090 (NORAD 38044). GLOBALSTAR M090 can be tracked NOW for your location showing map with azimuth and elevation plus other details from your city location.







IsCatalogInMostPopularTable: catalog: 38044, numindb: 414
Update: records affected: 1



GetName: 38044 GLOBALSTAR M090

Hit Count: updated at: Thu, 22 May 2025 04:29:29 GMT